G4CVN Weather Reports


time (UTC)temp
F
wind
direction
speed
knots
gust
knots
rain 1hr
in
rain 24hr
in
rain mn
in
humidity
%
barometer
mb
20260505181517 60 0.0 0.9 0.00 0.00 0.00 57 1014.8
20260505180517 60 0.0 0.9 0.00 0.00 0.00 57 1014.8
20260505175517 60 0.0 0.9 0.00 0.00 0.00 56 1014.8
20260505174517 60 0.0 0.0 0.00 0.00 0.00 56 1014.8
20260505173537 61 0.0 0.9 0.00 0.00 0.00 55 1014.8
20260505172517 61 0.0 0.9 0.00 0.00 0.00 55 1014.9
20260505171517 61 0.0 0.9 0.00 0.00 0.00 54 1014.9
20260505170537 61 0.0 0.9 0.00 0.00 0.00 54 1015.0
20260505165517 61 0.0 1.7 0.00 0.00 0.00 53 1014.9
20260505164517 61 270 0.9 1.7 0.00 0.00 0.00 52 1014.8
20260505163517 62 270 0.9 3.5 0.00 0.00 0.00 50 1014.9
20260505162517 62 0.0 0.9 0.00 0.00 0.00 51 1015.0
20260505161517 62 0.0 0.9 0.00 0.00 0.00 51 1015.0
20260505160517 62 0.0 0.9 0.00 0.00 0.00 53 1015.0
20260505152517 63 293 0.9 3.5 0.00 0.00 0.00 53 1015.1
20260505151517 63 0.0 1.7 0.00 0.00 0.00 53 1015.1
20260505150517 64 0.0 0.9 0.00 0.00 0.00 53 1015.1
20260505140518 64 23 0.9 2.6 0.00 0.00 0.00 53 1015.3
20260505124517 69 225 0.9 3.5 0.00 0.00 0.00 56 1015.5
20260505123517 68 0.0 3.5 0.00 0.00 0.00 54 1015.5
20260505122517 67 293 0.9 3.5 0.00 0.00 0.00 54 1015.7
20260505121517 66 0 0.9 3.5 0.00 0.00 0.00 56 1015.7
20260505120517 66 293 0.9 3.5 0.00 0.00 0.00 55 1015.7
20260505115537 66 0.0 1.7 0.00 0.00 0.00 56 1015.7
20260505114517 66 0.0 2.6 0.00 0.00 0.00 56 1015.7
20260505113517 66 338 0.9 1.7 0.00 0.00 0.00 59 1015.9
20260505112537 66 0.0 1.7 0.00 0.00 0.00 59 1015.8
20260505111517 65 0 0.9 3.5 0.00 0.00 0.00 61 1015.9
20260505110537 64 338 0.9 2.6 0.00 0.00 0.00 62 1016.0
20260505101517 63 0.0 1.7 0.00 0.00 0.00 65 1016.1
20260505100517 64 338 0.9 3.5 0.00 0.00 0.00 63 1016.1
20260505095517 64 0 0.9 2.6 0.00 0.00 0.00 66 1016.1
20260505094517 63 315 0.9 1.7 0.00 0.00 0.00 69 1016.2
20260505093517 62 0 1.7 5.2 0.00 0.00 0.00 68 1016.4
20260505092517 61 270 0.9 4.3 0.00 0.00 0.00 68 1016.5
20260505091537 61 0 0.9 7.0 0.00 0.00 0.00 69 1016.5
20260505090517 61 315 0.9 4.3 0.00 0.00 0.00 71 1016.5
20260505085517 60 23 0.9 4.3 0.00 0.00 0.00 66 1016.5
20260505084517 60 0 0.9 4.3 0.00 0.00 0.00 67 1016.5
20260505083515 60 0 0.9 2.6 0.00 0.00 0.00 70 1016.4
20260505082517 59 315 0.9 1.7 0.00 0.00 0.00 69 1016.5
20260505081517 59 0.0 2.6 0.00 0.00 0.00 71 1016.5
20260505080517 58 338 0.9 2.6 0.00 0.00 0.00 74 1016.6
20260505075517 57 0 0.9 3.5 0.00 0.00 0.00 77 1016.5
20260505074517 56 338 0.9 5.2 0.00 0.00 0.00 78 1016.6
20260505073517 56 45 0.9 1.7 0.00 0.00 0.00 81 1016.5
20260505072515 56 23 0.9 3.5 0.00 0.00 0.00 85 1016.4
20260505071537 55 23 0.9 4.3 0.00 0.00 0.00 86 1016.5
20260505070517 55 0 0.9 2.6 0.00 0.00 0.00 86 1016.5
20260505065517 55 23 0.9 2.6 0.00 0.00 0.00 87 1016.7
20260505064517 54 23 0.9 2.6 0.00 0.00 0.00 88 1016.8
20260505063537 54 0.0 4.3 0.00 0.00 0.00 88 1016.8
20260505062517 54 23 0.9 2.6 0.00 0.00 0.00 89 1016.9
20260505061515 54 23 0.9 2.6 0.00 0.00 0.00 89 1016.8
20260505060517 54 45 0.9 3.5 0.00 0.00 0.00 89 1016.8
20260505055517 54 0 0.9 3.5 0.00 0.00 0.00 89 1016.8
20260505054537 53 0.0 2.6 0.00 0.00 0.00 90 1016.8
20260505053517 53 0.0 0.9 0.00 0.00 0.00 90 1016.7
20260505052517 53 0.0 1.7 0.00 0.00 0.00 90 1016.7
20260505051517 53 0.0 2.6 0.00 0.00 0.00 90 1016.8
20260505050515 53 0.0 1.7 0.00 0.00 0.00 90 1016.6
20260505041517 53 0.0 0.9 0.00 0.00 0.00 90 1017.0
20260505040517 53 0.0 0.9 0.00 0.00 0.00 90 1017.1
20260505035515 53 0.0 0.9 0.00 0.00 0.00 90 1017.1
20260505034517 53 0.0 0.9 0.00 0.00 0.00 90 1017.2
20260505033517 53 0.0 1.7 0.00 0.00 0.00 90 1017.3
20260505032517 53 0.0 0.9 0.00 0.00 0.00 90 1017.2
20260505031517 53 0.0 1.7 0.00 0.00 0.00 90 1017.3
20260505030517 53 0.0 1.7 0.00 0.00 0.00 90 1017.2
20260505025517 53 0.0 0.9 0.00 0.00 0.00 90 1017.3
20260505024515 53 0.0 0.0 0.00 0.00 0.00 90 1017.3
20260505023517 53 0.0 0.0 0.00 0.00 0.00 90 1017.3
20260505022517 53 0.0 0.0 0.00 0.00 0.00 90 1017.2
20260505021517 54 0.0 0.0 0.00 0.00 0.00 90 1017.2
20260505020517 54 0.0 0.0 0.00 0.00 0.00 90 1017.3
20260505015517 54 0.0 1.7 0.00 0.00 0.00 89 1017.4
20260505014517 54 0.0 1.7 0.00 0.00 0.00 89 1017.4
20260505013515 54 0.0 0.0 0.00 0.00 0.00 90 1017.6
20260505012537 54 0.0 0.9 0.00 0.00 0.00 90 1017.7
20260505011517 54 0.0 0.0 0.00 0.00 0.00 90 1017.6
20260505010537 54 0.0 0.9 0.00 0.00 0.00 90 1017.6
20260505005517 54 0.0 0.0 0.00 0.00 0.00 90 1017.9
20260505004517 55 0.0 1.7 0.00 0.00 0.00 91 1017.9
20260505003537 55 0.0 3.5 0.00 0.00 0.00 91 1018.0
20260505002517 55 0.0 3.5 0.00 0.00 0.00 91 1018.1
20260505001515 55 0.0 0.9 0.00 0.00 0.00 91 1018.1
20260505000536 55 0.0 0.0 0.00 0.00 0.00 92 1018.1
20260504235515 55 0.0 0.0 0.00 0.00 0.00 92 1018.0
20260504234515 54 0.0 0.0 0.00 0.00 0.00 92 1018.1
20260504233515 54 0.0 0.9 0.00 0.00 0.00 91 1018.0
20260504232515 54 0.0 0.0 0.00 0.00 0.00 90 1018.0
20260504231515 54 0.0 0.0 0.00 0.00 0.00 90 1018.0
20260504230515 54 0.0 0.0 0.00 0.00 0.00 90 1018.0
20260504225515 54 0.0 0.0 0.00 0.00 0.00 90 1018.0
20260504224535 54 0.0 0.0 0.00 0.00 0.00 90 1018.2
20260504223515 55 0.0 0.0 0.00 0.00 0.00 90 1018.2
20260504222515 55 0.0 0.0 0.00 0.00 0.00 90 1018.1
20260504221515 55 0.0 0.0 0.00 0.00 0.00 89 1018.2
20260504220535 55 0.0 0.0 0.00 0.00 0.00 89 1018.3
20260504215515 55 0.0 0.0 0.00 0.00 0.00 88 1018.2
20260504214515 55 0.0 0.0 0.00 0.00 0.00 87 1018.2
20260504213515 55 0.0 0.0 0.00 0.00 0.00 87 1018.2
20260504212515 55 0.0 0.9 0.00 0.00 0.00 86 1018.2
20260504211535 55 0.0 0.0 0.00 0.00 0.00 86 1018.2
20260504210515 55 0.0 0.0 0.00 0.00 0.00 86 1018.3
20260504205535 56 0.0 0.0 0.00 0.00 0.00 85 1018.2
20260504204515 56 0.0 0.0 0.00 0.00 0.00 85 1018.2
20260504203515 56 0.0 0.0 0.00 0.00 0.00 84 1018.2
20260504202515 56 0.0 0.0 0.00 0.00 0.00 84 1018.2
20260504201535 56 0.0 0.0 0.00 0.00 0.00 83 1018.1
20260504200515 57 0.0 0.0 0.00 0.00 0.00 82 1018.0
20260504195515 57 0.0 0.0 0.00 0.00 0.00 81 1018.0
20260504194515 58 0.0 0.0 0.00 0.00 0.00 80 1017.8
20260504193515 58 0.0 0.0 0.00 0.00 0.00 80 1017.8
20260504192515 59 0.0 0.0 0.00 0.00 0.00 80 1017.7
20260504191515 59 0.0 0.0 0.00 0.00 0.00 79 1017.6
20260504190555 60 0.0 0.9 0.00 0.00 0.00 78 1017.6
20260504185515 60 0.0 0.9 0.00 0.00 0.00 77 1017.6
20260504184515 61 0.0 0.9 0.00 0.00 0.00 76 1017.6
20260504183515 61 0.0 0.9 0.00 0.00 0.00 76 1017.5
20260504182535 62 0.0 0.9 0.00 0.00 0.00 75 1017.4